#timestamp,LO_Frequency,Hit,StdDev 
1513213215.9,286046998.3,N
1513213235.7,286046999.1,N
1513213255.6,286046996.7,N
1513213275.4,286046997.8,N
1513213295.2,286046997.3,N
1513213315.1,286046997.4,N
1513213316.0,286046997.4,N
1513213335.8,286046996.7,N
1513213355.7,286046999.2,N
1513213375.5,286046998.6,N
1513213395.3,286047000.7,N
1513213415.2,286046996.8,N
1513213435.0,286046996.6,N
1513213435.9,286046996.6,N
1513213455.7,286046995.5,N
1513213475.6,286046994.2,N
1513213495.4,286046992.2,Y
1513213515.3,286046993.5,P
1513213535.1,286046996.1,N
1513213555.8,286046995.6,N
1513213575.7,286046998.2,N
1513213595.5,286046996.5,N
1513213615.4,286046995.2,Y
1513213635.2,286047000.3,P
1513213655.0,286047001.4,N
1513213655.9,286047001.4,N
1513213675.8,286047002.5,N
1513213695.6,286047001.5,N
1513213715.5,286047004.2,N
1513213735.3,286047001.7,N
1513213755.1,286047003.6,N
1513213775.9,286047004.5,N
1513213795.7,286047004.8,N
1513213815.5,286047004.4,N
1513213835.4,286047003.5,N
1513213855.2,286047006.0,N
1513213875.1,286047003.6,N
1513213876.0,286047003.6,N
1513213895.8,286047007.1,Y
1513213915.6,286047004.2,P
1513213935.5,286047001.4,N
1513213955.3,286047002.3,N
1513213975.2,286047000.3,N
1513213995.9,286046998.1,N
1513214015.7,286047000.3,N
1513214035.6,286047001.9,N
1513214055.4,286047002.0,N
1513214105.3,286047002.7,E
1513214115.2,286046999.9,N
1513214135.0,286046999.6,P
1513214135.9,286046999.6,N
1513214155.8,286046996.5,Y
1513214175.6,286046998.9,P
1513214195.5,286046999.4,N
1513214215.3,286046997.9,P
1513214235.1,286046995.1,Y
1513214255.9,286046995.9,P
1513214275.7,286046998.0,N
1513214295.6,286046993.3,P
1513214315.4,286046996.1,N
1513214335.2,286046993.9,Y
1513214355.1,286046997.7,P
1513214356.0,286046997.7,P
1513214375.8,286046995.8,P
1513214395.7,286046996.0,Y
1513214415.5,286046998.9,P
1513214435.3,286046999.2,N
1513214455.2,286046995.8,P
1513214475.0,286046997.1,N
1513214475.9,286046997.1,N
1513214495.8,286046998.8,N
1513214515.6,286046998.6,N
1513214535.4,286046999.3,N
1513214555.3,286046999.2,N
1513214575.1,286047001.0,N
1513214595.8,286047000.0,N
1513214615.7,286047001.9,N
1513214635.5,286047002.1,N
1513214655.4,286046998.9,N
1513214675.2,286046997.7,N
1513214695.0,286046994.9,Y
1513214695.9,286046994.9,P
1513214715.8,286046997.3,N
1513214735.6,286046999.3,N
1513214755.5,286046998.3,N
1513214775.3,286046999.7,N
1513214795.1,286047000.9,N
1513214815.9,286046999.6,N
1513214835.7,286046998.8,N
1513214855.6,286046998.4,N
1513214875.4,286046999.5,N
1513214895.2,286046994.4,Y
1513214915.1,286046997.6,P
1513214916.0,286046997.6,P
1513214935.8,286046997.0,P
1513214955.6,286046999.1,N
1513214975.5,286046998.5,N
1513214995.3,286047000.3,N
1513215015.2,286047001.5,N
1513215035.9,286047004.2,N
1513215055.7,286047000.1,N
1513215075.6,286046998.4,N
1513215095.4,286046997.5,N
1513215115.3,286046997.8,N
1513215135.1,286047000.8,N
1513215136.0,286047000.8,N
1513215155.8,286047000.4,N
1513215175.7,286047000.3,N
1513215195.5,286047000.5,N
1513215215.4,286046998.7,N
1513215235.2,286046996.7,N
1513215255.0,286046997.7,N
1513215255.9,286046997.7,N
1513215275.8,286046997.7,N
1513215295.6,286046998.8,N
1513215315.4,286047001.1,N
1513215335.3,286047000.5,N
1513215355.1,286047000.4,N
1513215375.9,286047000.0,N
1513215395.7,286046998.1,N
1513215415.5,286046999.0,N
1513215435.4,286046999.7,N
1513215455.2,286047002.8,N
1513215475.1,286047002.6,N
1513215476.0,286047002.6,N
1513215495.8,286047000.8,N
1513215515.6,286046997.1,N
1513215535.5,286046995.3,N
1513215555.3,286046997.4,N
1513215575.1,286046997.2,N
1513215595.9,286046995.6,N
1513215615.7,286046995.6,N
1513215635.6,286046997.9,N
1513215655.4,286046996.8,N
1513215675.2,286046998.9,N
1513215695.1,286046998.5,N
1513215696.0,286046998.5,N
1513215715.8,286046999.0,N
1513215765.7,286047002.8,E
1513215775.6,286047000.7,N
1513215795.4,286046998.4,P
1513215815.3,286047002.3,N
1513215835.1,286047001.6,N
1513215855.9,286047002.0,N
1513215875.7,286047001.7,N
1513215895.5,286047003.9,N
1513215915.4,286047005.1,Y
1513215935.2,286047002.7,P
1513215955.1,286047000.3,N
1513215956.0,286047000.3,N
1513215975.8,286047000.5,N
1513215995.6,286047003.9,Y
1513216015.5,286047000.2,P
1513216035.3,286047000.8,N
1513216055.2,286047001.1,N
1513216075.9,286047000.3,N
1513216095.7,286047000.7,N
1513216115.6,286046998.1,Y
1513216135.4,286046999.3,P
1513216155.3,286046997.7,P
1513216175.1,286046994.3,P
1513216176.0,286046994.3,N
1513216195.8,286046993.7,N
1513216215.7,286046993.9,N
1513216235.5,286046992.5,N
1513216255.3,286046993.1,N
1513216275.2,286046991.0,Y
1513216295.0,286046998.4,P
1513216295.9,286046998.4,N
1513216315.8,286047000.2,N
1513216335.6,286047001.6,N
1513216355.4,286047005.6,N
1513216375.3,286047005.2,N
1513216395.1,286047006.8,N
1513216415.9,286047007.0,N
1513216435.7,286047007.3,N
1513216455.5,286047004.1,N
1513216475.4,286047004.3,N
1513216495.2,286047001.0,N
1513216515.0,286046999.2,N
1513216515.9,286046999.2,N
1513216535.8,286046998.8,N
1513216555.6,286046999.5,N
1513216575.5,286046998.0,N
1513216595.3,286046995.3,N
1513216615.1,286046997.8,N
1513216635.9,286046999.5,N
1513216655.7,286046999.6,N
1513216675.6,286046998.8,N
1513216695.4,286047000.0,N
1513216715.2,286047001.4,N
1513216735.1,286047003.5,N
1513216736.0,286047003.5,N
1513216755.8,286047003.9,N
1513216775.6,286047005.8,N
1513216795.5,286047005.7,N
